FENGYUN 1C DEB, 36686

Orbit data source: Space-Track

FENGYUN 1C DEB, 36686 is space debris in SSO originally from a launch on Mon, 10 May 1999 UTC launched from the Taiyaun Space Center, China (TSC). Fengyun 1C debris stems from the Chinese weather satellite Fengyun-1C, which was intentionally destroyed by a Chinese anti-satellite missile in 2007. This event dramatically increased the amount of space debris, with thousands of trackable fragments posing hazards to satellites and human spaceflight. The Fengyun 1C debris cloud has become a focal point in discussions about space sustainability and the need for international regulations to prevent the creation of new debris.

Loading next visibility...
Identifier
36686, 1999-025DZG
Orbit
SSO
Country
Flag of CNCN / PRC
Related business
Manufacturer
Unknown
Mission
Spacecraft
Bus & Motor
Unknown
Mass
Unknown
Launch date (UTC)
1999-05-10 (27 years ago)
Launch vehicle
Unknown
Launch site
Taiyaun Space Center, China (TSC)
Object type
Payload
Rocket body
Debris
Shape & HBR
Unknown shape, 0.1 m
Radar Cross Section
Small (<0.1 m²)

Expand to show TLE details & history
Last TLE update: 23 hours ago

TLE from 23 hours ago
0 FENGYUN 1C DEB
1 36686U 99025DZG 26255.44173294  .00003278  00000-0  40319-3 0  9998
2 36686  98.9771 124.0956 0096869 273.5475  85.4659 14.80575789698981
Epoch: 2026-09-12T10:36Z
TLE epoch observation values (Epoch: 2026-09-12T10:36:05.726Z)
Latitude
-0.00005°
Longitude
-26.37893°
Altitude
625.784 km
Speed
7.548 km/s
True Right ascension
08h 16m 22s
True Declination
0° 00' 00"
Sunlit
Object was in daylight at epoch
Visualization orbit readout
Latitude
Unknown
Longitude
Unknown
Altitude
Unknown
Speed
Unknown
Apparent Right ascension
Unknown
Apparent Declination
Unknown
Sunlit
N/A
Visualization observer readout
Local Sidereal Time
02:28:05
Azimuth
Unknown
Elevation
Unknown
Doppler factor
Unknown
Orbital elements
Apogee altitude
692.433 km
Perigee altitude
556.764 km
Semi-major axis
7,002.735 km
Eccentricity
0.00969
Inclination
98.9771°
RAAN
124.0956°
Arg. of periapsis
273.5475°
True anomaly
86.57345°
Mean anomaly
85.4659°
Eccentric anomaly
86.01958°
Mean motion
3.70375 °/min
Orbital period
97.2 mins
BSTAR
0.00040319
Loading maneuver chart data...
Computing Atmospheric mass density...

Documentation

Showing up to 5 results
|